This is the latest recevied weather packets stored in our database for station/object SA6BET-2. If no packets are shown the sender has not sent any weather packets the latest 10 day(s).
| Time | Temp. | Humidity | Pressure | Rain* | Wind** | Luminosity | Snow |
|---|---|---|---|---|---|---|---|
| 1787818024 | 26.67° C | 100% | 1014.8 hPa | - | - | - | - |
| 1787817124 | 26.11° C | 100% | 1014.8 hPa | - | - | - | - |
| 1787816224 | 25.56° C | 100% | 1014.8 hPa | - | - | - | - |
| 1787815324 | 26.67° C | 100% | 1014.3 hPa | - | - | - | - |
| 1787814423 | 25.56° C | 100% | 1014.4 hPa | - | - | - | - |
| 1787813523 | 25° C | 100% | 1014.3 hPa | - | - | - | - |
| 1787812623 | 24.44° C | 100% | 1014.6 hPa | - | - | - | - |
| 1787811723 | 23.33° C | 100% | 1014.6 hPa | - | - | - | - |
| 1787810823 | 23.33° C | 100% | 1014.3 hPa | - | - | - | - |
| 1787809923 | 23.33° C | 100% | 1014.2 hPa | - | - | - | - |
| 1787809022 | 23.33° C | 100% | 1014.1 hPa | - | - | - | - |
| 1787808122 | 23.89° C | 100% | 1013.9 hPa | - | - | - | - |
| 1787807222 | 23.33° C | 100% | 1013.5 hPa | - | - | - | - |
| 1787806322 | 23.89° C | 100% | 1013.5 hPa | - | - | - | - |
| 1787805422 | 23.89° C | 100% | 1013.4 hPa | - | - | - | - |
| 1787804522 | 23.89° C | 100% | 1013.1 hPa | - | - | - | - |
| 1787803621 | 23.89° C | 100% | 1013.2 hPa | - | - | - | - |
| 1787802721 | 23.89° C | 100% | 1012.9 hPa | - | - | - | - |
| 1787801849 | 23.89° C | 100% | 1012.8 hPa | - | - | - | - |
| 1787800948 | 23.89° C | 100% | 1012.8 hPa | - | - | - | - |
| 1787800048 | 23.89° C | 100% | 1012.8 hPa | - | - | - | - |
| 1787799148 | 23.89° C | 100% | 1012.6 hPa | - | - | - | - |
| 1787798248 | 23.89° C | 100% | 1012.6 hPa | - | - | - | - |
| 1787797348 | 23.89° C | 100% | 1012.7 hPa | - | - | - | - |
| 1787796448 | 23.89° C | 100% | 1012.7 hPa | - | - | - | - |
* Rain since midnight (hover to see other rain measurements)
** Current wind speed in m/s (hover to see current wind gust speed)